Location: Ertinghausen
(51.6624°N, 9.7874°E)
Time: 14:11:17
(UTC+00:00)

CZ-2C R/B - Pass Details

Date: 13 August 2024
Orbit: 703 x 903 km, 98.2° (Epoch: 14 September)

Event Time Altitude Azimuth Distance (km) Brightness Sun altitude
Rises 23:58:02 0° 27° (NNE) 3,202 7.4 -23.4°
Reaches altitude 10° 00:01:10 10° 49° (NE) 2,307 6.1 -23.3°
Maximum altitude 00:04:22 17° 88° (E) 1,918 5.2 -23.2°
Enters shadow 00:06:40 13° 118° (ESE) 2,163 5.2 -23.2°
